Torna al catalogo

WEILI KONGJIAN 05-06

AttivoNavigazioneLEO
NORAD 69587·PAYLOAD·🇨🇳 China
Questo nome del satellite non è ancora stato confermato da fonti ufficiali.

Lanciato Jun 17, 2026 da Jiuquan Satellite Launch Center

Loading…

Prossimi Passaggi (prossime 24 ore)

TLE

AggiornatoSource: Space-Track

Epoca: Sep 14, 2026, 10:39 UTC

1 69587U 26138F   26257.44433149  .00000080  00000-0  13453-3 0  9996
2 69587  55.1425 311.9932 0007934 242.1187 117.8980 14.08290009 12656

Traccia WEILI KONGJIAN 05-06 in tempo reale con AllMySat

Download on the App Store